sat.trackr.live / text

‹ back to catalog

ICEYE-X42

NORAD 62698 · 2025-009CT

PAYLOAD ACTIVE UNKNOWN

§ Identity

Operator
Country
UAE
Launch date
2025-01-14
Launch site
AFWTR
Launch vehicle
Mass (kg)
RCS (m²)

External: N2YO · Heavens-Above · Gunter

§ Orbital elements

Epoch: 2026-05-25T04:49:33.742272Z

Period
96.52 min
Inclination
97.7398°
Eccentricity
0.0001764
Mean motion
14.91868133 rev/d
Perigee alt
590.9 km
Apogee alt
593.3 km
Semi-major
6,970.2 km
B*
1.7844e-4
RAAN
223.9287°
Arg perigee
100.1866°
Mean anomaly
259.9552°
Rev number
7,386

§ Raw data

ICEYE-X421 62698U 25009CT  26145.20108498  .00001747  00000+0  17844-3 0  99922 62698  97.7398 223.9287 0001764 100.1866 259.9552 14.91868133 73864

JSON: /api/v1/satellites/62698 · /tle

For live sub-satellite position, see the globe view (requires WebGL).

§ Visibility from observer

Set your observer location to see the next 7 days of passes ≥ 10°. The values pass through the URL so the page stays shareable.

No JS? Fill the form by hand. The geolocation button needs JavaScript.

§ Radio — SatNOGS DB

ModeDescriptionDownlinkUplink
BPSK S-band telemetry 2.276 GHz

1 transmitter · refreshed weekly from db.satnogs.org